Simultaneous Nadir Overpasses (SNOs) Predictions

Prediction of SNOs between LANDSAT-8 and METOP-A Satellite Orbit:

Table of predicted SNOs for the next 14.0 days since TLE Epoch: 7/7/2017
Index Date (LANDSAT-8) Time (LANDSAT-8) Lat,Lon (LANDSAT-8) SZA (LANDSAT-8 ) Date (METOP-A) Time (METOP-A) Lat,Lon (METOP-A) SZA (METOP-A ) Distance(km) Time Diff (sec)
1 07/10/2017 08:26:55 -81.00, -88.57 119.32 07/10/2017 08:25:41 -81.09, -88.82 119.30 11.03 74
2 07/10/2017 09:16:12 81.22, 82.44 61.20 07/10/2017 09:16:11 81.22, 82.58 61.22 2.54 1
3 07/10/2017 10:05:38 -81.23,-109.63 118.76 07/10/2017 10:06:51 -81.23,-109.80 118.74 2.92 73
4 07/13/2017 04:01:02 -81.20, -19.02 118.47 07/13/2017 03:59:53 -81.20, -19.05 118.50 0.67 69
5 07/13/2017 04:50:27 81.23, 149.08 61.60 07/13/2017 04:50:32 81.22, 148.92 61.59 2.69 5
6 07/15/2017 23:35:17 -81.21, 47.62 118.02 07/15/2017 23:34:13 -81.21, 47.70 118.04 1.48 64
7 07/16/2017 00:24:42 81.24,-144.32 62.05 07/16/2017 00:24:52 81.23,-144.37 62.05 1.12 10
8 07/18/2017 19:09:31 -81.22, 114.22 117.52 07/18/2017 19:08:33 -81.21, 114.06 117.57 2.98 58
9 07/18/2017 19:58:57 81.22, -78.11 62.50 07/18/2017 19:59:12 81.23, -78.06 62.51 1.05 15
10 07/21/2017 14:43:47 -81.21,-179.57 117.03 07/21/2017 14:42:54 -81.21,-179.60 117.05 0.62 53




NCC Satellite Simultaneous Nadir Overpasses (SNOs) Prediction Service
